Location: Arroyo de Valdeoliva
(40.1604°N, 4.9878°W)
Time: 11:40:11
(UTC+00:00)

Tiangong - Pass Details

Date: 17 February 2026
Orbit: 381 x 391 km, 41.5° (Epoch: 8 March)

Event Time Altitude Azimuth Distance (km) Brightness Sun altitude
Rises 19:43:26 0° 282° (WNW) 2,254 3.2 -20.8°
Reaches altitude 10° 19:45:31 10° 282° (WNW) 1,398 1.8 -21.2°
Enters shadow 19:48:01 52° 273° (W) 478 -1.4 -21.7°
